Location: Brno
(49.2000°N, 16.6330°E)
Time: 15:42:40
(UTC+02:00)

BREEZE M DEB (TANK) - Visible Passes

Search period start: 16 April 2014 00:00
Search period end: 26 April 2014 00:00
Orbit: 294 x 12257 km, 49.5° (Epoch: 13 April)

Date Brightness Start Highest point End Pass type
(mag) Time Alt. Az. Time Alt. Az. Time Alt. Az.
16 Apr 7.5 01:17:59 10° W 01:43:57 89° SSW 03:27:19 10° ESE visible
16 Apr 8.2 05:29:05 10° WNW 06:18:31 52° WSW 07:43:39 10° S visible
16 Apr 6.1 20:49:28 10° SSW 20:59:29 55° SE 21:45:28 10° ENE visible
17 Apr 7.4 00:53:27 10° W 01:17:07 90° N 02:58:53 10° ESE visible
17 Apr 8.1 05:03:51 10° WNW 05:52:07 55° WSW 07:19:45 10° S visible
17 Apr 6.1 20:25:34 10° SSW 20:35:08 49° ESE 21:16:01 10° ENE visible
18 Apr 7.4 00:28:53 10° W 00:50:28 89° N 02:29:52 10° ESE visible
18 Apr 8.1 04:38:40 10° WNW 05:25:26 59° WSW 06:55:29 10° S visible
18 Apr 6.1 20:01:43 10° S 20:10:52 43° ESE 20:46:53 10° ENE visible
19 Apr 7.3 00:04:18 10° W 00:23:58 89° N 02:00:14 10° ESE visible
19 Apr 8.0 04:13:30 10° WNW 04:58:29 62° SW 06:30:50 10° S visible
19 Apr 6.1 19:37:54 10° S 19:46:40 38° ESE 20:18:01 10° ENE visible
19 Apr 7.1 23:39:43 10° W 23:57:39 89° N 01:29:59 10° ESE visible
20 Apr 8.0 03:48:22 10° WNW 04:31:19 66° SW 06:05:50 10° SSE visible
20 Apr 7.0 23:15:06 10° WSW 23:31:28 90° S 00:59:10 10° E visible
21 Apr 7.9 03:23:14 10° WNW 04:03:57 69° SW 05:40:27 10° SSE visible
21 Apr 6.8 22:50:28 10° WSW 23:05:27 89° SSE 00:27:53 10° E visible
22 Apr 7.9 02:58:06 10° WNW 03:36:26 72° SW 05:14:42 10° SSE visible
22 Apr 6.6 22:25:50 10° WSW 22:39:33 87° SSE 23:56:15 10° E visible
23 Apr 7.8 02:32:59 10° WNW 03:08:50 75° SW 04:48:32 10° SSE visible
23 Apr 6.5 22:01:10 10° WSW 22:13:46 85° SSE 23:24:26 10° E visible
24 Apr 7.8 02:07:50 10° WNW 02:41:11 77° SW 04:21:57 10° SSE visible
24 Apr 6.3 21:36:30 10° WSW 21:48:06 82° SSE 22:52:38 10° E visible
25 Apr 7.8 01:42:42 10° WNW 02:13:33 80° SSW 03:54:55 10° SE visible
25 Apr 6.2 21:11:49 10° SW 21:22:33 78° SSE 22:21:01 10° ENE visible
